Regional Weather Roundup
Issued by NWS

Home | Current Version | Previous Version | Text Only | Print | Product List | Glossary On
Versions: 1 2 3 4 5 6 7 8 9 10 11 12 13 14 15 16 17 18 19 20 21 22 23 24 25 26 27 28 29 30 31 32 33 34 35 36 37 38 39 40 41 42 43 44 45 46 47 48 49 50
000
ASUS45 KPSR 060810
RWRAZ

ARIZONA HOURLY REGIONAL WEATHER ROUNDUP
NATIONAL WEATHER SERVICE PHOENIX AZ
100 AM MST FRI MAY 06 2016

NOTE: FAIR INDICATES FEW OR NO CLOUDS BELOW 12,000 FEET WITH NO
SIGNIFICANT WEATHER AND/OR OBSTRUCTIONS TO VISIBILITY.

AZZ001>003-036-060900-
NORTHWEST ARIZONA

CITY           SKY/WX    TMP DP  RH WIND       PRES   REMARKS
BULLHEAD CITY  PTCLDY    75  34  22 S9        29.70R
KINGMAN        PTCLDY    62  25  24 S10       29.79R
$$

AZZ004>008-015-016-018-060900-
NORTH CENTRAL ARIZONA

CITY           SKY/WX    TMP DP  RH WIND       PRES   REMARKS
GRAND CANYON   CLOUDY    52  20  28 S6        29.96S
WILLIAMS       MOCLDY    52  14  22 S16G29    30.03R
PRESCOTT       PTCLDY    55  20  25 SE9       29.90F
FLAGSTAFF      MOCLDY    49  19  30 SW21G29   29.96S
PAYSON         PTCLDY    59  27  29 SE3       29.96F
PAGE           CLOUDY    69  20  15 SW9       29.80R
$$

AZZ009>014-017-060900-
NORTHEAST ARIZONA

CITY           SKY/WX    TMP DP  RH WIND       PRES   REMARKS
WINSLOW        MOCLDY    56  30  37 CALM      29.92S
SAINT JOHNS    PTCLDY    67  14  13 S14       29.91F
WINDOW ROCK    MOCLDY    53  33  46 CALM      30.01S
$$

AZZ023-060900-
GREATER PHOENIX AREA

CITY           SKY/WX    TMP DP  RH WIND       PRES   REMARKS
PHOENIX        PTCLDY    73  38  27 W15       29.77R
BUCKEYE        CLEAR     66  43  42 SW13      29.79S
LUKE AFB       PTCLDY    70  41  34 SW12      29.77R
DEER VALLEY    PTCLDY    70  34  26 SW7       29.79R
SCOTTSDALE     PTCLDY    72  31  22 NW5       29.81R
MESA-GATEWAY   CLEAR     72  32  23 SW3       29.80S
$$

AZZ027-028-060900-
SOUTHWEST MARICOPA COUNTY AND PINAL COUNTY

CITY           SKY/WX    TMP DP  RH WIND       PRES   REMARKS
CASA GRANDE    CLEAR     70  34  26 S8        29.81R
GILA BEND      FAIR      67  42  39 W7        29.77R
$$

AZZ503-504-507>509-060900-
SOUTHEAST ARIZONA

CITY           SKY/WX    TMP DP  RH WIND       PRES   REMARKS
TUCSON         CLEAR     71  35  26 S6        29.85S
DAVIS-MONTHAN  CLEAR     71  36  28 E1        29.84S
NOGALES        CLEAR     65  37  35 S14       29.91F
SIERRA VISTA   CLEAR     65  31  27 VRB7G21   29.92F
DOUGLAS        CLEAR     65  24  21 SE8       29.94S
SAFFORD        CLEAR     73  15  11 SW8       29.82R
$$

AZZ020-021-025-026-031-060900-
SOUTHWEST ARIZONA

CITY           SKY/WX    TMP DP  RH WIND       PRES   REMARKS
YUMA           CLEAR     66  44  45 NW15G24   29.75S
$$

CAZ031-033-041-043-047-048-061-060900-
SOUTHERN CALIFORNIA

CITY           SKY/WX    TMP DP  RH WIND       PRES   REMARKS
DOWNTOWN L.A.  LGT RAIN  58  52  80 CALM      29.87F
L.A. AIRPORT   MOCLDY    58  53  84 E5        29.87F
SAN DIEGO      MOCLDY    60  54  80 E5        29.90F
BURBANK        MOCLDY    57  47  69 S3        29.86F
ONTARIO        MOCLDY    55  50  83 SW5       29.87F
RIVERSIDE      MOCLDY    57  51  80 CALM      29.88F
PALM SPRINGS   CLEAR     64  44  48 SW3       29.74F
IMPERIAL       CLEAR     66  45  46 W21       29.74F
BLYTHE         CLEAR     66  46  48 SW10      29.72F
NEEDLES        PTCLDY    74  37  26 SW10      29.69R
$$

NVZ020-UTZ003-060900-
SOUTHERN NEVADA-UTAH

CITY           SKY/WX    TMP DP  RH WIND       PRES   REMARKS
LAS VEGAS      PTCLDY    68  38  33 S5        29.67R
SALT LAKE CITY MOCLDY    67  38  34 S6        29.79S
$$

NMZ009-TXZ055-060900-
NEW MEXICO-WEST TEXAS

CITY           SKY/WX    TMP DP  RH WIND       PRES   REMARKS
ALBUQUERQUE    CLOUDY    66  23  19 S10       30.02R
EL PASO        MOCLDY    73  25  16 SE9       29.93F
$$


........................KEY........................
SKY/WX - SKY CONDITION/WEATHER
TMP    - TEMPERATURE IN FAHRENHEIT
DP     - DEW POINT IN FAHRENHEIT
RH     - RELATIVE HUMIDITY IN PERCENT
WIND   - DIRECTION AND SPEED IN MILES PER HOUR (MPH)
VRB    - VARIABLE WIND DIRECTION
PRES   - MEAN SEA LEVEL PRESSURE IN INCHES OF MERCURY
         F - FALLING PRESSURE   R - RISING PRESSURE
         S - STEADY PRESSURE
VSB    - VISIBILITY IN MILES
HX     - HEAT INDEX IN FAHRENHEIT
WCI    - WIND CHILL INDEX IN FAHRENHEIT
TC     - TEMPERATURE IN CELSIUS WHICH IS ALSO KNOWN AS
         TEMPERATURE IN CENTIGRADE
AFB    - AIR FORCE BASE
         LUKE AFB IS LUKE AIR FORCE BASE
         DAVIS-MONTHAN IS DAVIS-MONTHAN AIR FORCE BASE
NAS    - NAVAL AIR STATION
         EL CENTRO NAS IS EL CENTRO NAVAL AIR STATION
N/A    - NOT AVAILABLE




USA.gov is the U.S. government's official web portal to all federal, state and local government web resources and services.